Location: Waldport
(44.4270°N, 124.0680°W)
Time: 03:01:51
(UTC-07:00)

Amateur Radio Satellites - All Passes

Search period start: 30 June 2015 02:31
Search period end: 01 July 2015 02:31
Location: Waldport, 44.4270°N, 124.0680°W

Satellite Date Start Highest point End Downlink Frequencies (MHz)
Time Altitude Azimuth
Gurwin Techsat 1B 30 Jun 02:37:53 02:41:23 18° 89° (E) 02:45:04 435.225
RS-15 30 Jun 02:42:02 02:51:13 35° 107° (ESE) 03:00:55 29.354- 29.394
KKS-1 30 Jun 02:46:00 02:50:07 38° 70° (ENE) 02:54:16 437.445
Cosmos 2491 30 Jun 02:55:05 03:03:32 50° 73° (ENE) 03:11:58 435.465 / 435.565
SO-50 30 Jun 02:59:35 03:04:32 61° 51° (NE) 03:09:23 436.795
Oscar 19 30 Jun 03:12:11 03:17:18 71° 287° (WNW) 03:22:24 437.125/150
ITAMSAT 1 30 Jun 03:12:42 03:17:27 35° 96° (E) 03:22:13 435.822/435.867
BEESAT 30 Jun 03:25:52 03:29:12 18° 270° (W) 03:32:23 436.000
YUBILEINY 30 Jun 03:33:52 03:41:18 35° 85° (E) 03:48:56 435.215
SWISSCUBE 30 Jun 03:42:23 03:44:18 12° 274° (W) 03:45:56 437.505
ITUPSAT 1 30 Jun 03:44:57 03:47:05 12° 273° (W) 03:48:58 437.325
STARS 30 Jun 03:50:19 03:54:43 75° 257° (WSW) 03:59:09 437.465
AIST 1 30 Jun 03:55:49 04:00:15 80° 82° (E) 04:04:35
MOZHAYETS 4 30 Jun 04:04:03 04:07:48 26° 67° (ENE) 04:11:39
PCSat 30 Jun 04:04:25 04:07:59 17° 254° (WSW) 04:11:20 145.827
Gurwin Techsat 1B 30 Jun 04:16:37 04:21:53 63° 288° (WNW) 04:27:08 435.225
JAS-2 30 Jun 04:20:09 04:26:11 45° 98° (E) 04:32:59 435.910
KKS-1 30 Jun 04:23:21 04:26:54 22° 267° (W) 04:30:22 437.445
SO-50 30 Jun 04:41:04 04:44:41 20° 248° (WSW) 04:48:06 436.795
RS-15 30 Jun 04:51:54 05:02:50 72° 310° (NW) 05:14:11 29.354- 29.394
ITAMSAT 1 30 Jun 04:52:16 04:56:56 33° 294° (WNW) 05:01:30 435.822/435.867
Cosmos 2491 30 Jun 04:52:19 05:00:15 39° 274° (W) 05:07:58 435.465 / 435.565
Oscar 19 30 Jun 04:54:36 04:55:50 11° 304° (WNW) 04:56:47 437.125/150
AO-7 30 Jun 04:56:49 05:04:51 48° 100° (E) 05:12:53 29.400- 29.500
HORYU 2 30 Jun 05:11:43 05:16:12 77° 103° (ESE) 05:20:40 437.375
Cosmos 2504 30 Jun 05:19:06 05:22:10 14° 78° (ENE) 05:25:40 435.465 / 435.565
YUBILEINY 30 Jun 05:29:19 05:37:50 55° 286° (WNW) 05:46:20 435.215
MOZHAYETS 4 30 Jun 05:40:44 05:44:55 34° 264° (W) 05:49:06
CUBESAT XI-V 30 Jun 05:53:33 05:57:38 31° 68° (ENE) 06:01:48 437.345
JAS-2 30 Jun 06:05:34 06:11:13 36° 293° (WNW) 06:17:23 435.910
STRAND 1 30 Jun 06:28:06 06:32:25 29° 66° (ENE) 06:36:50 437.568
PRISM 30 Jun 06:38:04 06:41:37 28° 68° (ENE) 06:45:15 437.425
AO-7 30 Jun 06:49:49 06:57:37 44° 300° (WNW) 07:05:18 29.400- 29.500
HORYU 2 30 Jun 06:50:13 06:52:18 13° 299° (WNW) 06:54:11 437.375
CUTE-I 30 Jun 06:51:21 06:55:51 27° 93° (E) 07:00:25 437.470
Cosmos 2504 30 Jun 07:07:16 07:14:32 83° 97° (E) 07:21:44 435.465 / 435.565
RS-15 30 Jun 07:08:02 07:17:40 32° 340° (NNW) 07:27:33 29.354- 29.394
Cubesat XI-IV 30 Jun 07:23:34 07:28:50 53° 99° (E) 07:34:05 437.490
CUBESAT XI-V 30 Jun 07:30:53 07:35:03 31° 266° (W) 07:39:13 437.345
AUBIESAT-1 30 Jun 07:33:26 07:34:48 12° 58° (ENE) 07:36:19 437.475
YUBILEINY 30 Jun 07:34:04 07:37:17 12° 312° (NW) 07:39:55 435.215
M-CUBED/EXP-1 PRIME 30 Jun 08:01:21 08:04:13 29° 65° (ENE) 08:07:12 437.505
STRAND 1 30 Jun 08:06:41 08:11:30 39° 263° (W) 08:16:19 437.568
PRISM 30 Jun 08:13:27 08:17:02 27° 265° (W) 08:20:36 437.425
GONETS M04 30 Jun 08:14:16 08:17:24 13° 74° (ENE) 08:21:12
CUSAT 1 30 Jun 08:17:07 08:23:04 32° 95° (E) 08:28:00 437.405
BRITE-PL 30 Jun 08:19:34 08:22:42 19° 90° (E) 08:25:49 437.365/2234.400
GOMX 1 30 Jun 08:21:08 08:22:09 11° 86° (E) 08:23:24 467.674
BEESAT 3 30 Jun 08:30:23 08:33:43 25° 115° (ESE) 08:37:09 437.485
HO-68 30 Jun 08:30:53 08:34:53 16° 86° (E) 08:39:17 435.675
CUTE-I 30 Jun 08:31:03 08:36:07 43° 291° (WNW) 08:41:08 437.470
BEESAT 2 30 Jun 08:35:53 08:39:06 23° 114° (ESE) 08:42:25 435.950
CANX-2 30 Jun 08:41:58 08:43:30 12° 87° (E) 08:45:16 2200.000
AO-7 30 Jun 08:45:38 08:48:22 12° 322° (NW) 08:50:43 29.400- 29.500
DANDE 30 Jun 08:46:20 08:53:29 44° 95° (E) 08:59:17 436.750
O/OREOS (USA 219) 30 Jun 09:02:54 09:07:20 70° 111° (ESE) 09:11:47 437.305
Cosmos 2504 30 Jun 09:03:59 09:09:01 19° 299° (WNW) 09:13:45 435.465 / 435.565
Cubesat XI-IV 30 Jun 09:04:22 09:08:38 24° 297° (WNW) 09:12:46 437.490
AUBIESAT-1 30 Jun 09:06:04 09:09:15 44° 255° (WSW) 09:12:30 437.475
CINEMA 3 30 Jun 09:11:59 09:12:45 11° 87° (E) 09:13:48 145.822/145.860
AIST 2 30 Jun 09:23:15 09:26:15 19° 113° (ESE) 09:29:23 435.215
RS-15 30 Jun 09:25:09 09:34:37 29° 14° (NNE) 09:44:33 29.354- 29.394
DOVE 4 30 Jun 09:26:14 09:30:04 34° 96° (E) 09:33:51 437.250
SEEDS 30 Jun 09:33:37 09:37:25 31° 95° (E) 09:41:14 437.485
M-CUBED/EXP-1 PRIME 30 Jun 09:37:02 09:39:13 16° 262° (W) 09:41:21 437.505
Oscar 11 30 Jun 09:38:08 09:39:19 11° 87° (E) 09:40:46 145.826/435.025
ISS 30 Jun 09:52:07 09:54:32 20° 136° (SE) 09:56:59 145.825
ANTELSAT 30 Jun 09:55:52 09:58:55 20° 65° (ENE) 10:02:02 437.575/2403.000
UWE-3 30 Jun 09:55:52 09:57:41 13° 88° (E) 09:59:42 435.000/436.395/437.385
AAUSAT CUBESAT 2 30 Jun 09:56:38 10:00:34 38° 97° (E) 10:04:31 437.432
GOMX 1 30 Jun 09:56:40 10:00:58 67° 286° (WNW) 10:05:05 467.674
BRITE-PL 30 Jun 09:57:19 10:01:34 40° 289° (WNW) 10:05:31 437.365/2234.400
CUSAT 1 30 Jun 09:59:07 10:05:39 43° 285° (WNW) 10:10:44 437.405
GONETS M04 30 Jun 10:04:04 10:12:45 67° 93° (E) 10:21:25
BEESAT 3 30 Jun 10:07:44 10:11:32 36° 313° (NW) 10:15:22 437.485
TIGRISAT 30 Jun 10:09:50 10:13:22 26° 68° (ENE) 10:16:55 435.000
CUTE 1.7 + AOD 2 30 Jun 10:13:03 10:17:21 79° 284° (WNW) 10:21:37 437.475
BEESAT 2 30 Jun 10:13:05 10:16:59 40° 312° (NW) 10:20:54 435.950
QB50P2 30 Jun 10:14:51 10:16:58 14° 63° (ENE) 10:19:17 145.880/145.840
CANX-2 30 Jun 10:15:42 10:19:58 66° 285° (WNW) 10:24:12 2200.000
HO-68 30 Jun 10:16:34 10:23:47 86° 106° (ESE) 10:30:58 435.675
POPSAT HIP 1 30 Jun 10:16:46 10:18:57 14° 63° (ENE) 10:21:17 437.405
COMPASS 1 30 Jun 10:18:24 10:22:39 78° 102° (ESE) 10:26:52 437.405
BUGSAT 1 30 Jun 10:24:33 10:25:47 11° 61° (ENE) 10:27:12 437.445
CUBEBUG 2 30 Jun 10:29:39 10:33:31 37° 97° (E) 10:37:27 437.445
DANDE 30 Jun 10:29:49 10:36:44 37° 287° (WNW) 10:42:13 436.750
VERMONT LUNAR 30 Jun 10:40:57 10:43:32 24° 162° (SSE) 10:46:10 437.305
DX 1 30 Jun 10:42:18 10:43:42 12° 87° (E) 10:45:20 434.975-435.025
O/OREOS (USA 219) 30 Jun 10:44:34 10:47:19 15° 311° (NW) 10:49:57 437.305
DELFI C3 30 Jun 10:44:43 10:48:34 40° 97° (E) 10:52:25 145.870
CINEMA 3 30 Jun 10:46:24 10:50:33 68° 285° (WNW) 10:54:42 145.822/145.860
UNISAT 6 30 Jun 10:46:40 10:50:56 64° 74° (ENE) 10:55:11 437.425
ZACube-1 30 Jun 10:52:29 10:56:26 40° 98° (E) 11:00:28 437.345
QB50P1 30 Jun 10:54:28 10:58:16 33° 70° (ENE) 11:02:07 145.935-145.965
AIST 2 30 Jun 11:00:22 11:04:31 49° 309° (NW) 11:08:43 435.215
AISAT 30 Jun 11:01:01 11:01:36 10° 86° (E) 11:02:28 437.250
DOVE 4 30 Jun 11:04:25 11:07:41 22° 294° (WNW) 11:10:49 437.250
UKube-1 30 Jun 11:08:57 11:12:11 21° 93° (E) 11:15:30 .
SEEDS 30 Jun 11:09:35 11:13:06 25° 292° (WNW) 11:16:33 437.485
NANOSAT C BR1 30 Jun 11:10:14 11:14:19 48° 72° (ENE) 11:18:26 145.865
Oscar 11 30 Jun 11:11:45 11:16:06 73° 285° (WNW) 11:20:25 145.826/435.025
POLYITAN 1 30 Jun 11:17:44 11:21:56 60° 74° (ENE) 11:26:07 437.675
DUCHIFAT 1 30 Jun 11:18:45 11:22:55 58° 73° (ENE) 11:27:06 145.980
50 SAT 30 Jun 11:19:24 11:21:58 17° 92° (E) 11:24:39 437.505
ISS 30 Jun 11:27:28 11:30:41 62° 332° (NNW) 11:33:55 145.825
PHONESAT 2.4 30 Jun 11:29:47 11:32:04 17° 155° (SSE) 11:34:24 2401.200-2431.200
UWE-3 30 Jun 11:30:33 11:34:39 59° 287° (WNW) 11:38:49 435.000/436.395/437.385
FUNcube-1 30 Jun 11:30:39 11:34:49 78° 286° (WNW) 11:39:03 145.935
ANTELSAT 30 Jun 11:31:20 11:35:27 42° 262° (W) 11:39:32 437.575/2403.000
AAUSAT CUBESAT 2 30 Jun 11:32:45 11:35:58 21° 293° (WNW) 11:39:04 437.432
CUBEBUG 1 30 Jun 11:32:46 11:34:33 12° 87° (E) 11:36:33 437.445
Cosmos 2499 30 Jun 11:33:32 11:40:16 50° 91° (E) 11:47:04 435.465 / 435.565
RS-15 30 Jun 11:38:45 11:50:10 59° 45° (NE) 12:02:06 29.354- 29.394
TIGRISAT 30 Jun 11:46:10 11:50:02 31° 264° (W) 11:53:50 435.000
QB50P2 30 Jun 11:48:12 11:52:26 63° 259° (W) 11:56:39 145.880/145.840
VELOX 1 30 Jun 11:49:07 11:53:07 33° 96° (E) 11:57:08 145.980
HUMSAT D 30 Jun 11:49:37 11:53:46 77° 102° (ESE) 11:57:56 437.325/437.525
POPSAT HIP 1 30 Jun 11:50:09 11:54:22 62° 259° (W) 11:58:36 437.405
COMPASS 1 30 Jun 11:56:17 11:57:46 11° 298° (WNW) 11:59:03 437.405
BUGSAT 1 30 Jun 11:56:26 12:00:42 81° 257° (WSW) 12:04:57 437.445
GONETS M04 30 Jun 12:02:51 12:10:24 30° 296° (WNW) 12:17:44
HO-68 30 Jun 12:05:32 12:10:45 22° 305° (NW) 12:15:45 435.675
CUBEBUG 2 30 Jun 12:06:52 12:10:02 21° 293° (WNW) 12:13:09 437.445
DX 1 30 Jun 12:16:10 12:20:32 71° 286° (WNW) 12:24:50 434.975-435.025
VERMONT LUNAR 30 Jun 12:17:08 12:20:07 40° 179° (S) 12:23:09 437.305
DELFI C3 30 Jun 12:20:30 12:23:24 19° 294° (WNW) 12:26:13 145.870
UNISAT 6 30 Jun 12:26:19 12:28:14 12° 272° (W) 12:29:56 437.425
ZACube-1 30 Jun 12:29:32 12:32:35 19° 294° (WNW) 12:35:33 437.345
QB50P1 30 Jun 12:30:44 12:34:12 23° 267° (W) 12:37:36 145.935-145.965
AISAT 30 Jun 12:34:25 12:38:52 80° 284° (WNW) 12:43:16 437.250
AIST 2 30 Jun 12:43:05 12:44:09 11° 331° (NNW) 12:45:06 435.215
UKube-1 30 Jun 12:44:26 12:48:29 39° 290° (WNW) 12:52:29 .
NANOSAT C BR1 30 Jun 12:47:43 12:50:28 16° 270° (W) 12:53:05 145.865
ESTCUBE 1 30 Jun 12:49:40 12:54:15 86° 284° (WNW) 12:58:48 437.505/2401.250
SPROUT 30 Jun 12:51:13 12:54:44 25° 94° (E) 12:58:19 437.525
Oscar 19 30 Jun 12:52:31 12:56:45 27° 65° (ENE) 13:01:05 437.125/150
50 SAT 30 Jun 12:53:09 12:56:46 37° 289° (WNW) 13:00:23 437.505
POLYITAN 1 30 Jun 12:56:09 12:58:17 13° 271° (W) 13:00:13 437.675
DUCHIFAT 1 30 Jun 12:56:57 12:59:10 13° 271° (W) 13:01:11 145.980
ISS 30 Jun 13:04:49 13:07:32 23° 352° (N) 13:10:14 145.825
PHONESAT 2.4 30 Jun 13:06:22 13:09:37 38° 171° (S) 13:12:53 2401.200-2431.200
CUBEBUG 1 30 Jun 13:07:05 13:11:27 66° 286° (WNW) 13:15:45 437.445
VELOX 1 30 Jun 13:25:52 13:29:34 26° 293° (WNW) 13:33:10 145.980
Cosmos 2499 30 Jun 13:27:34 13:33:45 31° 292° (WNW) 13:39:52 435.465 / 435.565
HUMSAT D 30 Jun 13:27:38 13:29:00 11° 298° (WNW) 13:30:10 437.325/437.525
YUBILEINY 30 Jun 13:41:36 13:47:14 19° 56° (ENE) 13:53:16 435.215
BEESAT 30 Jun 13:47:00 13:48:41 12° 87° (E) 13:50:38 436.000
TISAT 1 30 Jun 13:50:40 13:54:53 74° 103° (ESE) 13:59:03 437.305
RS-15 30 Jun 13:51:31 14:02:37 50° 248° (WSW) 14:13:57 29.354- 29.394
VERMONT LUNAR 30 Jun 13:53:59 13:56:45 27° 195° (SSW) 13:59:32 437.305
Gurwin Techsat 1B 30 Jun 14:00:13 14:04:55 34° 67° (ENE) 14:09:43 435.225
SWISSCUBE 30 Jun 14:00:38 14:03:52 18° 90° (E) 14:07:16 437.505
ITUPSAT 1 30 Jun 14:03:45 14:06:55 18° 90° (E) 14:10:14 437.325
AO-7 30 Jun 14:08:39 14:13:59 20° 47° (NE) 14:19:38 29.400- 29.500
SPROUT 30 Jun 14:27:04 14:30:52 31° 291° (WNW) 14:34:36 437.525
ESTCUBE 1 30 Jun 14:29:09 14:30:27 11° 301° (WNW) 14:31:32 437.505/2401.250
Oscar 19 30 Jun 14:31:05 14:35:57 41° 262° (W) 14:40:48 437.125/150
ITAMSAT 1 30 Jun 14:32:08 14:37:16 63° 72° (ENE) 14:42:28 435.822/435.867
JAS-2 30 Jun 14:36:58 14:40:28 19° 61° (ENE) 14:44:12 435.910
HORYU 2 30 Jun 14:39:08 14:39:50 10° 59° (ENE) 14:40:45 437.375
ISS 30 Jun 14:41:47 14:44:36 26° 12° (NNE) 14:47:25 145.825
PHONESAT 2.4 30 Jun 14:44:03 14:47:20 39° 188° (S) 14:50:39 2401.200-2431.200
BEESAT 30 Jun 15:22:24 15:27:14 80° 284° (WNW) 15:32:02 436.000
TISAT 1 30 Jun 15:28:25 15:30:07 12° 299° (WNW) 15:31:38 437.305
YUBILEINY 30 Jun 15:36:58 15:45:46 82° 80° (E) 15:54:34 435.215
SWISSCUBE 30 Jun 15:37:24 15:42:07 53° 288° (WNW) 15:46:46 437.505
STARS 30 Jun 15:39:22 15:42:14 17° 91° (E) 15:45:15 437.465
Gurwin Techsat 1B 30 Jun 15:40:05 15:44:54 34° 265° (W) 15:49:43 435.225
ITUPSAT 1 30 Jun 15:40:29 15:45:13 55° 288° (WNW) 15:49:54 437.325
AO-7 30 Jun 15:57:16 16:05:32 74° 68° (ENE) 16:13:55 29.400- 29.500
Cosmos 2491 30 Jun 15:57:58 16:06:25 55° 91° (E) 16:14:57 435.465 / 435.565
HORYU 2 30 Jun 16:11:24 16:15:49 86° 76° (ENE) 16:20:16 437.375
KKS-1 30 Jun 16:11:31 16:15:56 61° 101° (E) 16:20:18 437.445
ITAMSAT 1 30 Jun 16:13:42 16:17:17 18° 271° (W) 16:20:42 435.822/435.867
ISS 30 Jun 16:18:03 16:21:18 88° 228° (SW) 16:24:33 145.825
JAS-2 30 Jun 16:20:05 16:25:11 59° 260° (W) 16:30:26 435.910
PHONESAT 2.4 30 Jun 16:22:24 16:24:55 18° 204° (SSW) 16:27:24 2401.200-2431.200
AIST 1 30 Jun 16:26:49 16:30:57 42° 93° (E) 16:35:09
BEESAT 3 30 Jun 16:46:52 16:50:27 29° 45° (NE) 16:54:00 437.485
BEESAT 2 30 Jun 16:52:48 16:56:20 27° 44° (NE) 16:59:51 435.950
Cosmos 2504 30 Jun 16:56:47 17:03:24 33° 69° (ENE) 17:10:32 435.465 / 435.565
BEESAT 30 Jun 17:02:54 17:04:21 11° 302° (WNW) 17:05:32 436.000
PCSat 30 Jun 17:02:56 17:08:04 47° 115° (ESE) 17:13:17 145.827
Cubesat XI-IV 30 Jun 17:10:06 17:13:09 16° 59° (ENE) 17:16:24 437.490
STARS 30 Jun 17:14:46 17:18:59 47° 289° (WNW) 17:23:10 437.465
SO-50 30 Jun 17:18:14 17:20:13 13° 109° (ESE) 17:22:28 436.795
O/OREOS (USA 219) 30 Jun 17:32:31 17:35:59 22° 53° (NE) 17:39:33 437.305
MOZHAYETS 4 30 Jun 17:33:36 17:38:07 48° 99° (E) 17:42:37
YUBILEINY 30 Jun 17:35:17 17:41:41 22° 280° (W) 17:47:45 435.215
AIST 2 30 Jun 17:42:26 17:45:56 25° 42° (NE) 17:49:25 435.215
KKS-1 30 Jun 17:49:28 17:52:07 15° 298° (WNW) 17:54:38 437.445
AO-7 30 Jun 17:52:20 17:59:12 26° 269° (W) 18:05:49 29.400- 29.500
Cosmos 2491 30 Jun 17:55:39 18:03:43 37° 292° (WNW) 18:11:39 435.465 / 435.565
ISS 30 Jun 17:55:48 17:57:17 12° 227° (SW) 17:58:41 145.825
AIST 1 30 Jun 18:05:41 18:08:52 19° 292° (WNW) 18:11:58
CUTE-I 30 Jun 18:14:37 18:19:47 52° 70° (ENE) 18:25:02 437.470
BEESAT 3 30 Jun 18:24:45 18:28:25 32° 243° (WSW) 18:31:59 437.485
BEESAT 2 30 Jun 18:30:42 18:34:28 35° 243° (WSW) 18:38:09 435.950
PCSat 30 Jun 18:46:53 18:51:42 31° 314° (NW) 18:56:30 145.827
Cubesat XI-IV 30 Jun 18:47:15 18:52:37 83° 254° (WSW) 18:58:04 437.490
Cosmos 2504 30 Jun 18:49:49 18:57:10 54° 268° (W) 19:04:59 435.465 / 435.565
SO-50 30 Jun 18:55:21 19:00:06 85° 302° (WNW) 19:05:02 436.795
HO-68 30 Jun 19:02:32 19:06:44 17° 52° (NE) 19:11:12 435.675
O/OREOS (USA 219) 30 Jun 19:11:20 19:15:40 45° 252° (WSW) 19:19:59 437.305
MOZHAYETS 4 30 Jun 19:11:35 19:15:02 20° 295° (WNW) 19:18:21
AIST 2 30 Jun 19:20:41 19:24:41 43° 242° (WSW) 19:28:36 435.215
CUBESAT XI-V 30 Jun 19:25:11 19:29:51 60° 100° (E) 19:34:29 437.345
DANDE 30 Jun 19:28:30 19:30:30 16° 64° (ENE) 19:32:23 436.750
GOMX 1 30 Jun 19:29:13 19:32:52 20° 65° (ENE) 19:36:31 467.674
BRITE-PL 30 Jun 19:30:38 19:35:30 34° 69° (ENE) 19:40:13 437.365/2234.400
CANX-2 30 Jun 19:37:25 19:38:47 12° 62° (ENE) 19:40:21 2200.000
PRISM 30 Jun 19:53:28 19:57:21 35° 97° (E) 20:01:13 437.425
CUTE-I 30 Jun 19:56:02 20:00:14 22° 269° (W) 20:04:19 437.470
GONETS M04 30 Jun 20:12:31 20:20:18 36° 67° (ENE) 20:28:13
CINEMA 3 30 Jun 20:14:42 20:17:10 15° 64° (ENE) 20:19:45 145.822/145.860
STRAND 1 30 Jun 20:15:02 20:20:10 62° 101° (E) 20:25:16 437.568
SEEDS 30 Jun 20:27:27 20:30:58 27° 69° (ENE) 20:34:34 437.485
Cubesat XI-IV 30 Jun 20:32:08 20:33:42 11° 276° (W) 20:34:55 437.490
DOVE 4 30 Jun 20:32:44 20:37:29 47° 72° (ENE) 20:41:59 437.250
Oscar 11 30 Jun 20:35:00 20:36:32 12° 61° (ENE) 20:38:16 145.826/435.025
CUSAT 1 30 Jun 20:36:25 20:38:51 26° 267° (W) 20:41:06 437.405
SO-50 30 Jun 20:38:03 20:41:26 18° 327° (NNW) 20:44:48 436.795
HO-68 30 Jun 20:46:20 20:53:27 76° 71° (ENE) 21:00:38 435.675
AAUSAT CUBESAT 2 30 Jun 20:49:04 20:52:43 32° 70° (ENE) 20:56:26 437.432
UWE-3 30 Jun 20:55:03 20:57:15 14° 64° (ENE) 20:59:36 435.000/436.395/437.385
FUNcube-1 30 Jun 20:55:22 20:56:16 11° 62° (ENE) 20:57:23 145.935
CUBESAT XI-V 30 Jun 21:03:45 21:06:52 17° 297° (WNW) 21:09:49 437.345
GOMX 1 30 Jun 21:05:31 21:10:42 57° 260° (W) 21:15:35 467.674
CUTE 1.7 + AOD 2 30 Jun 21:07:15 21:11:27 90° 186° (S) 21:15:42 437.475
BRITE-PL 30 Jun 21:08:49 21:13:58 36° 264° (W) 21:18:49 437.365/2234.400
CANX-2 30 Jun 21:09:58 21:14:10 76° 258° (WSW) 21:18:24 2200.000
COMPASS 1 30 Jun 21:10:58 21:15:04 65° 74° (ENE) 21:19:12 437.405
DANDE 30 Jun 21:11:35 21:13:38 16° 272° (W) 21:15:25 436.750
M-CUBED/EXP-1 PRIME 30 Jun 21:14:14 21:17:25 22° 100° (E) 21:20:51 437.505
Cosmos 2499 30 Jun 21:21:46 21:27:07 21° 62° (ENE) 21:33:02 435.465 / 435.565
PRISM 30 Jun 21:29:17 21:32:37 22° 294° (WNW) 21:35:50 437.425
CUBEBUG 2 30 Jun 21:29:29 21:33:30 39° 71° (ENE) 21:37:29 437.445
DELFI C3 30 Jun 21:33:39 21:37:09 31° 70° (ENE) 21:40:44 145.870
DX 1 30 Jun 21:39:24 21:41:40 14° 62° (ENE) 21:44:07 434.975-435.025
CINEMA 3 30 Jun 21:49:25 21:54:00 63° 259° (W) 21:58:23 145.822/145.860
ZACube-1 30 Jun 21:50:06 21:54:03 39° 71° (ENE) 21:57:59 437.345
STRAND 1 30 Jun 21:55:17 21:58:57 19° 298° (WNW) 22:02:27 437.568
AISAT 30 Jun 21:59:47 22:01:53 14° 61° (ENE) 22:04:12 437.250
SEEDS 30 Jun 22:03:08 22:06:44 27° 266° (W) 22:10:19 437.485
UKube-1 30 Jun 22:05:25 22:08:49 23° 66° (ENE) 22:12:18 .
50 SAT 30 Jun 22:06:14 22:08:01 13° 64° (ENE) 22:09:57 437.505
Oscar 11 30 Jun 22:07:52 22:12:10 77° 258° (WSW) 22:16:29 145.826/435.025
GONETS M04 30 Jun 22:09:10 22:17:35 54° 269° (W) 22:25:53
DOVE 4 30 Jun 22:11:40 22:15:27 21° 268° (W) 22:18:58 437.250
ESTCUBE 1 30 Jun 22:16:55 22:18:53 13° 61° (ENE) 22:21:04 437.505/2401.250
AUBIESAT-1 30 Jun 22:18:00 22:22:05 90° 105° (ESE) 22:26:28 437.475
AAUSAT CUBESAT 2 30 Jun 22:25:02 22:28:23 23° 267° (W) 22:31:41 437.432
FUNcube-1 30 Jun 22:27:49 22:32:04 82° 257° (WSW) 22:36:16 145.935
UWE-3 30 Jun 22:29:08 22:33:23 60° 259° (W) 22:37:35 435.000/436.395/437.385
CUBEBUG 1 30 Jun 22:30:35 22:32:58 15° 62° (ENE) 22:35:31 437.445
HO-68 30 Jun 22:36:38 22:42:01 21° 271° (W) 22:47:08 435.675
UNISAT 6 30 Jun 22:38:53 22:40:14 11° 87° (E) 22:41:50 437.425
HUMSAT D 30 Jun 22:42:48 22:46:52 65° 75° (ENE) 22:50:57 437.325/437.525
VELOX 1 30 Jun 22:48:09 22:52:15 37° 69° (ENE) 22:56:24 145.980
M-CUBED/EXP-1 PRIME 30 Jun 22:48:33 22:52:18 38° 294° (WNW) 22:56:18 437.505
COMPASS 1 30 Jun 22:49:42 22:51:15 12° 273° (W) 22:52:36 437.405
CUBEBUG 2 30 Jun 23:07:07 23:10:23 20° 268° (W) 23:13:30 437.445
DELFI C3 30 Jun 23:09:06 23:12:18 22° 267° (W) 23:15:27 145.870
DX 1 30 Jun 23:13:05 23:17:27 66° 258° (WSW) 23:21:50 434.975-435.025
Cosmos 2499 30 Jun 23:13:37 23:21:19 86° 263° (W) 23:29:39 435.465 / 435.565
ANTELSAT 30 Jun 23:21:16 23:25:10 32° 96° (E) 23:29:11 437.575/2403.000
ZACube-1 30 Jun 23:27:30 23:30:37 19° 268° (W) 23:33:34 437.345
QB50P2 30 Jun 23:32:43 23:35:37 18° 91° (E) 23:38:37 145.880/145.840
AISAT 30 Jun 23:33:29 23:37:57 73° 258° (WSW) 23:42:26 437.250
POPSAT HIP 1 30 Jun 23:34:31 23:37:25 18° 91° (E) 23:40:25 437.405
TIGRISAT 30 Jun 23:35:22 23:39:30 43° 98° (E) 23:43:43 435.000
50 SAT 30 Jun 23:38:30 23:42:15 53° 260° (W) 23:46:01 437.505
BUGSAT 1 30 Jun 23:38:55 23:40:37 13° 88° (E) 23:42:31 437.445
UKube-1 30 Jun 23:40:44 23:44:46 36° 262° (W) 23:48:48 .
SPROUT 30 Jun 23:47:05 23:50:36 25° 67° (ENE) 23:54:10 437.525
ESTCUBE 1 30 Jun 23:50:39 23:55:12 78° 259° (WSW) 23:59:46 437.505/2401.250
AUBIESAT-1 30 Jun 23:55:11 23:56:22 11° 303° (WNW) 23:57:23 437.475
CUBEBUG 1 01 Jul 00:04:26 00:08:52 65° 259° (W) 00:13:18 437.445
PCSat 01 Jul 00:07:00 00:09:35 14° 31° (NNE) 00:12:19 145.827
QB50P1 01 Jul 00:13:10 00:17:16 48° 99° (E) 00:21:20 145.935-145.965
UNISAT 6 01 Jul 00:13:15 00:17:35 71° 285° (WNW) 00:21:58 437.425
HUMSAT D 01 Jul 00:21:47 00:23:08 11° 273° (W) 00:24:15 437.325/437.525
VELOX 1 01 Jul 00:25:19 00:28:56 23° 267° (W) 00:32:28 145.980
NANOSAT C BR1 01 Jul 00:28:57 00:33:10 72° 102° (ESE) 00:37:21 145.865
POLYITAN 1 01 Jul 00:37:09 00:41:23 90° 293° (WNW) 00:45:35 437.675
DUCHIFAT 1 01 Jul 00:37:21 00:41:34 87° 102° (ESE) 00:45:45 145.980
TISAT 1 01 Jul 00:44:02 00:48:16 68° 75° (ENE) 00:52:31 437.305
BEESAT 01 Jul 00:54:36 00:57:45 18° 63° (ENE) 01:01:03 436.000
ANTELSAT 01 Jul 00:58:15 01:01:53 26° 292° (WNW) 01:05:28 437.575/2403.000
QB50P2 01 Jul 01:07:44 01:11:44 41° 289° (WNW) 01:15:41 145.880/145.840
SWISSCUBE 01 Jul 01:08:40 01:12:34 26° 66° (ENE) 01:16:35 437.505
Cosmos 2499 01 Jul 01:08:49 01:13:37 17° 280° (W) 01:18:10 435.465 / 435.565
POPSAT HIP 1 01 Jul 01:09:32 01:13:30 41° 289° (WNW) 01:17:26 437.405
ITUPSAT 1 01 Jul 01:12:03 01:15:54 26° 65° (ENE) 01:19:52 437.325
BUGSAT 1 01 Jul 01:12:31 01:16:33 57° 287° (WNW) 01:20:29 437.445
TIGRISAT 01 Jul 01:12:51 01:16:00 20° 294° (WNW) 01:19:05 435.000
SPROUT 01 Jul 01:22:39 01:26:34 32° 264° (W) 01:30:27 437.525
SO-50 01 Jul 01:45:24 01:49:28 25° 39° (NE) 01:53:33 436.795
PCSat 01 Jul 01:48:58 01:54:18 55° 53° (NE) 01:59:38 145.827
QB50P1 01 Jul 01:49:59 01:52:48 17° 296° (WNW) 01:55:28 145.935-145.965
Cosmos 2491 01 Jul 02:06:27 02:13:47 30° 64° (ENE) 02:21:15 435.465 / 435.565
NANOSAT C BR1 01 Jul 02:06:41 02:08:29 12° 298° (WNW) 02:10:06 145.865
RS-15 01 Jul 02:07:37 02:15:37 26° 103° (ESE) 02:24:14 29.354- 29.394
DUCHIFAT 1 01 Jul 02:16:03 02:16:46 10° 300° (WNW) 02:17:16 145.980
Gurwin Techsat 1B 01 Jul 02:17:01 02:18:15 11° 84° (E) 02:19:51 435.225
TISAT 1 01 Jul 02:22:56 02:24:34 12° 272° (W) 02:25:57 437.305
